DHL1407 MPTO-KMIA

Flight info

Callsign DHL1407
Flight time 2h 32m
Altitude 38000
Route EGETA3B EGETA DCT DAGAS UM542 SIA UM347 EPSIM DCT ZEUSS VIICE2
Aircraft A333/H-SDE3GHIJ2J3J5M1RVWXY/LB2D1

Departure

Time 2026-05-06 17:49
Airport Tocumen International Airport (MPTO)

Arrival

Time 2026-05-06 20:21
Airport Miami International Airport (KMIA)
Time Latitude Longitude Altitude Speed Heading
2026-05-06 17:32 9.08676 -79.37495 34 ft 0 kts 121°
2026-05-06 17:40 9.08676 -79.37496 34 ft 1 kts 121°
2026-05-06 17:41 9.08685 -79.37510 33 ft 3 kts 126°
2026-05-06 17:41 9.08698 -79.37525 34 ft 3 kts 137°
2026-05-06 17:41 9.08714 -79.37538 33 ft 3 kts 158°
2026-05-06 17:41 9.08731 -79.37541 32 ft 3 kts 198°
2026-05-06 17:42 9.08738 -79.37539 32 ft 1 kts 213°
2026-05-06 17:44 9.08734 -79.37541 32 ft 2 kts 214°
2026-05-06 17:44 9.08704 -79.37560 34 ft 7 kts 212°
2026-05-06 17:44 9.08651 -79.37598 35 ft 11 kts 217°
2026-05-06 17:45 9.08586 -79.37637 35 ft 11 kts 211°
2026-05-06 17:45 9.08519 -79.37683 35 ft 12 kts 216°
2026-05-06 17:45 9.08451 -79.37738 35 ft 13 kts 222°
2026-05-06 17:45 9.08373 -79.37817 35 ft 17 kts 226°
2026-05-06 17:46 9.08291 -79.37904 36 ft 17 kts 227°
2026-05-06 17:46 9.08209 -79.37987 37 ft 17 kts 221°
2026-05-06 17:46 9.08117 -79.38055 38 ft 16 kts 212°
2026-05-06 17:46 9.08019 -79.38112 38 ft 16 kts 211°
2026-05-06 17:47 9.07923 -79.38176 38 ft 16 kts 211°
2026-05-06 17:47 9.07827 -79.38238 38 ft 16 kts 209°
2026-05-06 17:47 9.07729 -79.38295 38 ft 17 kts 213°
2026-05-06 17:47 9.07679 -79.38380 43 ft 12 kts 280°
2026-05-06 17:48 9.07698 -79.38417 46 ft 0 kts 311°
2026-05-06 17:48 9.07709 -79.38424 46 ft 7 kts 329°
2026-05-06 17:48 9.07845 -79.38408 50 ft 31 kts 26°
2026-05-06 17:49 9.08111 -79.38242 47 ft 73 kts 32°
2026-05-06 17:49 9.08763 -79.37844 48 ft 144 kts 30°
2026-05-06 17:49 9.09749 -79.37238 515 ft 174 kts 33°
2026-05-06 17:49 9.10766 -79.36547 1505 ft 177 kts 33°
2026-05-06 17:50 9.11759 -79.35882 2343 ft 171 kts 33°
2026-05-06 17:50 9.12694 -79.35116 2901 ft 177 kts 44°
2026-05-06 17:50 9.13624 -79.34198 3251 ft 197 kts 43°
2026-05-06 17:50 9.14742 -79.33234 3462 ft 225 kts 39°
2026-05-06 17:51 9.16037 -79.32193 3742 ft 249 kts 39°
2026-05-06 17:51 9.17436 -79.31087 4276 ft 259 kts 39°
2026-05-06 17:51 9.18853 -79.29968 4958 ft 263 kts 39°
2026-05-06 17:51 9.20305 -79.28820 5649 ft 267 kts 39°
2026-05-06 17:52 9.21776 -79.27657 6357 ft 270 kts 39°
2026-05-06 17:52 9.23272 -79.26474 7013 ft 274 kts 39°
2026-05-06 17:52 9.24784 -79.25276 7666 ft 278 kts 39°
2026-05-06 17:52 9.26319 -79.24060 8384 ft 281 kts 40°
2026-05-06 17:53 9.27868 -79.22833 9102 ft 283 kts 40°
2026-05-06 17:53 9.29406 -79.21616 9827 ft 286 kts 40°
2026-05-06 17:53 9.30997 -79.20355 10314 ft 297 kts 40°
2026-05-06 17:53 9.32671 -79.19025 10594 ft 315 kts 40°
2026-05-06 17:54 9.34440 -79.17621 10840 ft 331 kts 40°
2026-05-06 17:54 9.36301 -79.16144 11081 ft 347 kts 40°
2026-05-06 17:54 9.38240 -79.14608 11363 ft 360 kts 40°
2026-05-06 17:54 9.40233 -79.13030 11817 ft 366 kts 40°
2026-05-06 17:55 9.42246 -79.11436 12403 ft 368 kts 40°
2026-05-06 17:55 9.44301 -79.09865 12985 ft 372 kts 37°
2026-05-06 17:55 9.46580 -79.08591 13580 ft 378 kts 26°
2026-05-06 17:55 9.49130 -79.07831 14098 ft 386 kts 13°
2026-05-06 17:56 9.51826 -79.07588 14588 ft 392 kts
2026-05-06 17:56 9.54567 -79.07563 15097 ft 396 kts
2026-05-06 17:56 9.57328 -79.07646 15602 ft 399 kts
2026-05-06 17:56 9.60111 -79.07770 16088 ft 402 kts
2026-05-06 17:57 9.62883 -79.07898 16575 ft 404 kts
2026-05-06 17:57 9.65701 -79.08014 17058 ft 406 kts
2026-05-06 17:57 9.68539 -79.08114 17533 ft 408 kts
2026-05-06 17:57 9.71399 -79.08202 18009 ft 411 kts
2026-05-06 17:58 9.74263 -79.08282 18441 ft 413 kts
2026-05-06 17:58 9.77145 -79.08357 18831 ft 416 kts
2026-05-06 17:58 9.80050 -79.08432 19218 ft 417 kts
2026-05-06 17:58 9.82930 -79.08506 19626 ft 419 kts
2026-05-06 17:59 9.85852 -79.08582 19994 ft 421 kts
2026-05-06 17:59 9.88787 -79.08658 20368 ft 423 kts
2026-05-06 17:59 9.91740 -79.08736 20736 ft 425 kts
2026-05-06 17:59 9.94706 -79.08814 21107 ft 427 kts
2026-05-06 18:00 9.97682 -79.08893 21464 ft 429 kts
2026-05-06 18:00 10.00668 -79.08972 21823 ft 430 kts
2026-05-06 18:00 10.03671 -79.09052 22164 ft 432 kts
2026-05-06 18:00 10.06679 -79.09132 22526 ft 433 kts
2026-05-06 18:01 10.09703 -79.09212 22876 ft 435 kts
2026-05-06 18:01 10.12737 -79.09292 23215 ft 437 kts
2026-05-06 18:01 10.15794 -79.09373 23535 ft 439 kts
2026-05-06 18:01 10.18854 -79.09454 23816 ft 441 kts
2026-05-06 18:02 10.21934 -79.09535 24077 ft 443 kts
2026-05-06 18:02 10.24981 -79.09616 24337 ft 446 kts
2026-05-06 18:02 10.28093 -79.09699 24602 ft 448 kts
2026-05-06 18:02 10.31228 -79.09782 24874 ft 450 kts
2026-05-06 18:03 10.34373 -79.09866 25139 ft 452 kts
2026-05-06 18:03 10.37523 -79.09949 25426 ft 454 kts
2026-05-06 18:03 10.40692 -79.10033 25691 ft 456 kts
2026-05-06 18:03 10.43874 -79.10118 25976 ft 458 kts
2026-05-06 18:04 10.47063 -79.10203 26266 ft 460 kts
2026-05-06 18:04 10.50266 -79.10288 26561 ft 461 kts
2026-05-06 18:04 10.53489 -79.10373 26854 ft 463 kts
2026-05-06 18:04 10.56711 -79.10459 27122 ft 465 kts
2026-05-06 18:05 10.59913 -79.10544 27418 ft 467 kts 360°
2026-05-06 18:05 10.63169 -79.10630 27673 ft 469 kts 360°
2026-05-06 18:05 10.66439 -79.10717 27981 ft 470 kts 360°
2026-05-06 18:05 10.69724 -79.10805 28227 ft 473 kts 360°
2026-05-06 18:06 10.73016 -79.10892 28553 ft 473 kts 359°
2026-05-06 18:06 10.76318 -79.10980 28781 ft 476 kts 359°
2026-05-06 18:06 10.79631 -79.11068 29099 ft 477 kts 359°
2026-05-06 18:06 10.82966 -79.11157 29297 ft 480 kts 359°
2026-05-06 18:07 10.86306 -79.11246 29598 ft 481 kts 359°
2026-05-06 18:07 10.89658 -79.11335 29780 ft 484 kts 359°
2026-05-06 18:07 10.93030 -79.11425 30123 ft 483 kts 359°
2026-05-06 18:07 10.96386 -79.11515 30377 ft 483 kts 359°
2026-05-06 18:08 10.99739 -79.11604 30735 ft 481 kts 359°
2026-05-06 18:08 11.03095 -79.11694 30963 ft 482 kts 358°
2026-05-06 18:08 11.06448 -79.11783 31304 ft 480 kts 358°
2026-05-06 18:08 11.09793 -79.11872 31549 ft 481 kts 358°
2026-05-06 18:09 11.13091 -79.11960 31932 ft 478 kts 359°
2026-05-06 18:09 11.16416 -79.12049 32235 ft 478 kts 358°
2026-05-06 18:09 11.19733 -79.12137 32590 ft 476 kts 358°
2026-05-06 18:09 11.23052 -79.12226 32802 ft 478 kts 358°
2026-05-06 18:10 11.26370 -79.12314 33118 ft 476 kts 358°
2026-05-06 18:10 11.29687 -79.12403 33352 ft 477 kts 358°
2026-05-06 18:10 11.33000 -79.12491 33698 ft 476 kts 358°
2026-05-06 18:10 11.36308 -79.12579 33936 ft 476 kts 358°
2026-05-06 18:11 11.39625 -79.12668 34224 ft 475 kts 358°
2026-05-06 18:11 11.41812 -79.12726 34372 ft 475 kts 358°
2026-05-06 18:11 11.46230 -79.12844 34752 ft 473 kts 358°
2026-05-06 18:11 11.49522 -79.12932 34972 ft 473 kts 358°
2026-05-06 18:12 11.52809 -79.13020 35297 ft 471 kts 358°
2026-05-06 18:12 11.56081 -79.13107 35518 ft 471 kts 358°
2026-05-06 18:12 11.59356 -79.13195 35828 ft 469 kts 358°
2026-05-06 18:12 11.62619 -79.13189 36011 ft 470 kts
2026-05-06 18:13 11.65866 -79.12817 36263 ft 470 kts
2026-05-06 18:13 11.69064 -79.12335 36470 ft 470 kts
2026-05-06 18:13 11.72292 -79.11795 36731 ft 469 kts
2026-05-06 18:13 11.75524 -79.11227 36932 ft 469 kts
2026-05-06 18:14 11.78736 -79.10649 37164 ft 468 kts
2026-05-06 18:14 11.81948 -79.10071 37387 ft 468 kts
2026-05-06 18:14 11.85156 -79.09495 37590 ft 468 kts
2026-05-06 18:14 11.88356 -79.08925 37836 ft 466 kts
2026-05-06 18:15 11.91555 -79.08358 37938 ft 467 kts
2026-05-06 18:15 11.94723 -79.07798 37944 ft 466 kts
2026-05-06 18:15 12.01115 -79.06671 37946 ft 466 kts
2026-05-06 18:16 12.07504 -79.05546 37943 ft 466 kts
2026-05-06 18:16 12.13905 -79.04416 37947 ft 466 kts
2026-05-06 18:17 12.19213 -79.03479 37947 ft 466 kts
2026-05-06 18:17 12.25622 -79.02347 37944 ft 466 kts
2026-05-06 18:18 12.32016 -79.01217 37950 ft 466 kts
2026-05-06 18:18 12.38371 -79.00093 37950 ft 466 kts
2026-05-06 18:19 12.44763 -78.98962 37953 ft 466 kts
2026-05-06 18:19 12.51164 -78.97829 37950 ft 466 kts
2026-05-06 18:20 12.57523 -78.96703 37950 ft 466 kts
2026-05-06 18:20 12.63911 -78.95571 37949 ft 465 kts
2026-05-06 18:21 12.70304 -78.94437 37954 ft 465 kts
2026-05-06 18:21 12.76693 -78.93304 37955 ft 466 kts
2026-05-06 18:22 12.83078 -78.92171 37955 ft 466 kts
2026-05-06 18:22 12.89463 -78.91037 37955 ft 466 kts
2026-05-06 18:23 12.95842 -78.89904 37955 ft 464 kts
2026-05-06 18:23 13.02158 -78.88782 37953 ft 463 kts
2026-05-06 18:24 13.08512 -78.87652 37953 ft 463 kts
2026-05-06 18:24 13.14876 -78.86520 37956 ft 463 kts
2026-05-06 18:25 13.21193 -78.85395 37955 ft 463 kts
2026-05-06 18:25 13.27550 -78.84263 37963 ft 463 kts
2026-05-06 18:26 13.33891 -78.83133 37960 ft 460 kts
2026-05-06 18:26 13.40205 -78.82008 37960 ft 460 kts
2026-05-06 18:27 13.46520 -78.80881 37960 ft 460 kts
2026-05-06 18:27 13.52831 -78.79755 37962 ft 460 kts
2026-05-06 18:28 13.59141 -78.78628 37963 ft 460 kts
2026-05-06 18:28 13.65444 -78.77502 37964 ft 460 kts
2026-05-06 18:29 13.71750 -78.76374 37964 ft 459 kts
2026-05-06 18:29 13.78003 -78.75256 37967 ft 459 kts
2026-05-06 18:30 13.84315 -78.74126 37971 ft 460 kts
2026-05-06 18:30 13.90626 -78.72996 37968 ft 459 kts
2026-05-06 18:31 13.96930 -78.71867 37971 ft 459 kts
2026-05-06 18:31 14.03204 -78.70742 37970 ft 456 kts
2026-05-06 18:32 14.09411 -78.69628 37969 ft 455 kts
2026-05-06 18:32 14.15655 -78.68508 37971 ft 455 kts
2026-05-06 18:33 14.21901 -78.67386 37967 ft 456 kts
2026-05-06 18:33 14.28158 -78.66262 37973 ft 456 kts
2026-05-06 18:34 14.34414 -78.65138 37972 ft 457 kts
2026-05-06 18:34 14.40665 -78.64013 37975 ft 456 kts
2026-05-06 18:35 14.46918 -78.62888 37978 ft 456 kts
2026-05-06 18:35 14.53166 -78.61763 37975 ft 456 kts
2026-05-06 18:36 14.59417 -78.60637 37975 ft 455 kts
2026-05-06 18:36 14.65662 -78.59511 37975 ft 456 kts
2026-05-06 18:37 14.71917 -78.58383 37974 ft 455 kts
2026-05-06 18:37 14.78104 -78.57266 37977 ft 454 kts 10°
2026-05-06 18:38 14.84338 -78.56140 37974 ft 455 kts
2026-05-06 18:38 14.90576 -78.55013 37974 ft 454 kts
2026-05-06 18:39 14.96807 -78.53886 37980 ft 454 kts 10°
2026-05-06 18:40 15.06126 -78.52247 37976 ft 454 kts 10°
2026-05-06 18:40 15.12351 -78.51189 37983 ft 454 kts 10°
2026-05-06 18:41 15.18597 -78.50127 37981 ft 454 kts 10°
2026-05-06 18:41 15.24824 -78.49063 37987 ft 453 kts 10°
2026-05-06 18:42 15.31016 -78.48002 37980 ft 453 kts 10°
2026-05-06 18:42 15.37243 -78.46935 37985 ft 454 kts 10°
2026-05-06 18:43 15.43477 -78.45865 37986 ft 454 kts 10°
2026-05-06 18:43 15.49712 -78.44795 37984 ft 454 kts 10°
2026-05-06 18:44 15.55945 -78.43725 37986 ft 454 kts 11°
2026-05-06 18:44 15.62189 -78.42652 37985 ft 454 kts 11°
2026-05-06 18:45 15.68390 -78.41586 37983 ft 454 kts 10°
2026-05-06 18:45 15.74625 -78.40514 37985 ft 454 kts 10°
2026-05-06 18:46 15.80858 -78.39441 37992 ft 454 kts 10°
2026-05-06 18:46 15.87115 -78.38363 37993 ft 459 kts 10°
2026-05-06 18:47 15.93426 -78.37274 37983 ft 457 kts 10°
2026-05-06 18:47 15.99672 -78.36196 37993 ft 454 kts 10°
2026-05-06 18:48 16.05863 -78.35129 37998 ft 456 kts 10°
2026-05-06 18:48 16.12182 -78.34037 37995 ft 464 kts 10°
2026-05-06 18:49 16.18611 -78.32926 37996 ft 471 kts 10°
2026-05-06 18:49 16.25085 -78.31807 37991 ft 471 kts 10°
2026-05-06 18:50 16.31540 -78.30691 37994 ft 470 kts 10°
2026-05-06 18:50 16.37994 -78.29574 37994 ft 470 kts 10°
2026-05-06 18:51 16.44456 -78.28454 38000 ft 470 kts 10°
2026-05-06 18:51 16.50911 -78.27335 37997 ft 470 kts 10°
2026-05-06 18:52 16.57321 -78.26223 37997 ft 470 kts 10°
2026-05-06 18:52 16.63776 -78.25103 38002 ft 470 kts 10°
2026-05-06 18:53 16.70233 -78.23981 37999 ft 470 kts 10°
2026-05-06 18:53 16.76695 -78.22858 38003 ft 469 kts 10°
2026-05-06 18:54 16.83126 -78.21739 37991 ft 468 kts 10°
2026-05-06 18:54 16.89556 -78.20619 38013 ft 468 kts 10°
2026-05-06 18:55 16.95940 -78.19506 38010 ft 468 kts 10°
2026-05-06 18:55 17.02373 -78.18385 38013 ft 468 kts 10°
2026-05-06 18:56 17.08804 -78.17262 38012 ft 467 kts
2026-05-06 18:56 17.15215 -78.16143 38018 ft 466 kts
2026-05-06 18:57 17.21609 -78.15025 38001 ft 465 kts
2026-05-06 18:57 17.27961 -78.13914 38018 ft 465 kts
2026-05-06 18:58 17.34349 -78.12796 38002 ft 465 kts
2026-05-06 18:58 17.40746 -78.11676 38014 ft 465 kts
2026-05-06 18:59 17.47118 -78.10560 38013 ft 463 kts
2026-05-06 18:59 17.53469 -78.09446 38007 ft 462 kts
2026-05-06 19:00 17.59815 -78.08332 38012 ft 462 kts
2026-05-06 19:00 17.66176 -78.07215 38024 ft 462 kts
2026-05-06 19:01 17.72481 -78.06108 38011 ft 462 kts
2026-05-06 19:01 17.78838 -78.04991 38011 ft 462 kts
2026-05-06 19:02 17.85181 -78.03876 38011 ft 462 kts
2026-05-06 19:02 17.91532 -78.02758 38009 ft 462 kts
2026-05-06 19:03 17.97886 -78.01639 38012 ft 462 kts
2026-05-06 19:03 18.04191 -78.00528 38011 ft 462 kts
2026-05-06 19:04 18.10538 -77.99409 38013 ft 462 kts
2026-05-06 19:04 18.16874 -77.98291 38014 ft 461 kts
2026-05-06 19:05 18.22146 -77.97360 38013 ft 461 kts
2026-05-06 19:05 18.28489 -77.96239 38019 ft 461 kts
2026-05-06 19:06 18.34817 -77.95120 38018 ft 460 kts
2026-05-06 19:06 18.41119 -77.94005 37993 ft 458 kts
2026-05-06 19:07 18.47416 -77.92903 37991 ft 457 kts
2026-05-06 19:07 18.53768 -77.92706 37992 ft 457 kts 358°
2026-05-06 19:08 18.60089 -77.93076 37994 ft 457 kts 356°
2026-05-06 19:08 18.66449 -77.93557 37997 ft 458 kts 356°
2026-05-06 19:09 18.72805 -77.94042 38020 ft 458 kts 356°
2026-05-06 19:09 18.79153 -77.94510 38013 ft 456 kts 356°
2026-05-06 19:10 18.85486 -77.94969 38017 ft 456 kts 356°
2026-05-06 19:10 18.91827 -77.95427 38017 ft 456 kts 356°
2026-05-06 19:11 18.98124 -77.95883 38012 ft 456 kts 356°
2026-05-06 19:11 19.04485 -77.96344 38022 ft 459 kts 356°
2026-05-06 19:12 19.10864 -77.96807 38022 ft 459 kts 356°
2026-05-06 19:12 19.17240 -77.97270 38026 ft 459 kts 356°
2026-05-06 19:13 19.23610 -77.97733 38023 ft 459 kts 356°
2026-05-06 19:13 19.29980 -77.98196 38025 ft 459 kts 356°
2026-05-06 19:14 19.36362 -77.98660 38026 ft 459 kts 356°
2026-05-06 19:14 19.42734 -77.99124 38034 ft 458 kts 356°
2026-05-06 19:15 19.49060 -77.99585 38031 ft 458 kts 355°
2026-05-06 19:15 19.55423 -78.00049 38035 ft 458 kts 355°
2026-05-06 19:16 19.61785 -78.00513 38033 ft 458 kts 356°
2026-05-06 19:16 19.68143 -78.00978 38034 ft 458 kts 356°
2026-05-06 19:17 19.74510 -78.01443 38038 ft 458 kts 355°
2026-05-06 19:17 19.80837 -78.01952 38032 ft 458 kts 351°
2026-05-06 19:18 19.87125 -78.03012 38035 ft 457 kts 350°
2026-05-06 19:18 19.93411 -78.04133 38037 ft 457 kts 350°
2026-05-06 19:19 19.99695 -78.05265 38036 ft 457 kts 350°
2026-05-06 19:19 20.05980 -78.06399 38037 ft 458 kts 350°
2026-05-06 19:20 20.12259 -78.07534 38035 ft 457 kts 350°
2026-05-06 19:20 20.18536 -78.08670 38033 ft 457 kts 350°
2026-05-06 19:21 20.24807 -78.09806 38037 ft 457 kts 350°
2026-05-06 19:21 20.31043 -78.10936 38040 ft 457 kts 350°
2026-05-06 19:22 20.37320 -78.12075 38040 ft 457 kts 350°
2026-05-06 19:22 20.43591 -78.13214 38042 ft 457 kts 350°
2026-05-06 19:23 20.49852 -78.14351 38037 ft 456 kts 350°
2026-05-06 19:23 20.56110 -78.15489 38036 ft 456 kts 350°
2026-05-06 19:24 20.62362 -78.16627 38034 ft 456 kts 349°
2026-05-06 19:24 20.68620 -78.17767 38031 ft 456 kts 349°
2026-05-06 19:25 20.74842 -78.18902 38037 ft 456 kts 349°
2026-05-06 19:25 20.81093 -78.20042 38035 ft 455 kts 349°
2026-05-06 19:26 20.87346 -78.21183 38034 ft 455 kts 349°
2026-05-06 19:26 20.93597 -78.22326 38036 ft 455 kts 349°
2026-05-06 19:27 20.99847 -78.23469 38033 ft 455 kts 349°
2026-05-06 19:27 21.06063 -78.24606 38032 ft 455 kts 349°
2026-05-06 19:28 21.12313 -78.25751 38035 ft 456 kts 349°
2026-05-06 19:28 21.18563 -78.26897 38030 ft 455 kts 349°
2026-05-06 19:29 21.24809 -78.28043 38029 ft 455 kts 349°
2026-05-06 19:29 21.31070 -78.29193 38033 ft 455 kts 349°
2026-05-06 19:30 21.37320 -78.30342 38034 ft 455 kts 349°
2026-05-06 19:30 21.43520 -78.31482 38028 ft 454 kts 349°
2026-05-06 19:31 21.49748 -78.32629 38031 ft 453 kts 349°
2026-05-06 19:31 21.59078 -78.34348 38025 ft 453 kts 349°
2026-05-06 19:32 21.65298 -78.35495 38031 ft 453 kts 349°
2026-05-06 19:32 21.71516 -78.36643 38033 ft 453 kts 349°
2026-05-06 19:33 21.77732 -78.37792 38032 ft 452 kts 349°
2026-05-06 19:33 21.83941 -78.38941 38039 ft 452 kts 349°
2026-05-06 19:34 21.90098 -78.40081 38035 ft 452 kts 349°
2026-05-06 19:34 21.96305 -78.41231 38033 ft 452 kts 349°
2026-05-06 19:35 22.02511 -78.42382 38036 ft 452 kts 349°
2026-05-06 19:35 22.08717 -78.43534 38040 ft 452 kts 349°
2026-05-06 19:36 22.14911 -78.44685 38042 ft 451 kts 349°
2026-05-06 19:36 22.21113 -78.45839 38046 ft 451 kts 349°
2026-05-06 19:37 22.27311 -78.46993 38045 ft 451 kts 349°
2026-05-06 19:37 22.32460 -78.47953 38041 ft 451 kts 349°
2026-05-06 19:38 22.39655 -78.49295 38052 ft 452 kts 349°
2026-05-06 19:38 22.45853 -78.50452 38052 ft 452 kts 349°
2026-05-06 19:39 22.52055 -78.51611 38043 ft 452 kts 349°
2026-05-06 19:39 22.58263 -78.52773 38052 ft 452 kts 349°
2026-05-06 19:40 22.64475 -78.53936 38056 ft 452 kts 349°
2026-05-06 19:40 22.70679 -78.55099 38056 ft 452 kts 348°
2026-05-06 19:41 22.76841 -78.56255 38045 ft 452 kts 348°
2026-05-06 19:41 22.83047 -78.57420 38054 ft 452 kts 348°
2026-05-06 19:42 22.89255 -78.58587 38048 ft 452 kts 348°
2026-05-06 19:42 22.95456 -78.59753 38057 ft 452 kts 348°
2026-05-06 19:43 23.01653 -78.60920 38058 ft 452 kts 348°
2026-05-06 19:43 23.07856 -78.62088 38051 ft 452 kts 348°
2026-05-06 19:44 23.14045 -78.63255 38051 ft 451 kts 348°
2026-05-06 19:44 23.20233 -78.64423 38052 ft 451 kts 348°
2026-05-06 19:45 23.26437 -78.65596 38058 ft 451 kts 348°
2026-05-06 19:45 23.32588 -78.66759 38050 ft 451 kts 348°
2026-05-06 19:46 23.38787 -78.67932 38056 ft 451 kts 348°
2026-05-06 19:46 23.44972 -78.69104 38052 ft 452 kts 348°
2026-05-06 19:47 23.51192 -78.70284 38069 ft 453 kts 348°
2026-05-06 19:47 23.57407 -78.71463 38055 ft 453 kts 348°
2026-05-06 19:48 23.63589 -78.72638 38073 ft 453 kts 348°
2026-05-06 19:48 23.69803 -78.73819 38056 ft 453 kts 348°
2026-05-06 19:49 23.75999 -78.74998 38056 ft 452 kts 348°
2026-05-06 19:49 23.82198 -78.76179 38056 ft 452 kts 347°
2026-05-06 19:50 23.88359 -78.77354 38060 ft 452 kts 347°
2026-05-06 19:50 23.94549 -78.78536 38058 ft 452 kts 347°
2026-05-06 19:51 23.99666 -78.79825 38058 ft 448 kts 338°
2026-05-06 19:51 24.05164 -78.82941 37887 ft 441 kts 328°
2026-05-06 19:52 24.07769 -78.84667 37550 ft 435 kts 328°
2026-05-06 19:52 24.10306 -78.86356 37156 ft 430 kts 328°
2026-05-06 19:52 24.12859 -78.88054 36643 ft 429 kts 328°
2026-05-06 19:52 24.15411 -78.89749 36065 ft 429 kts 328°
2026-05-06 19:53 24.17962 -78.91441 35437 ft 430 kts 328°
2026-05-06 19:53 24.20537 -78.93148 34808 ft 432 kts 328°
2026-05-06 19:53 24.23114 -78.94856 34165 ft 434 kts 328°
2026-05-06 19:53 24.25704 -78.96574 33423 ft 436 kts 329°
2026-05-06 19:54 24.28312 -78.98304 32677 ft 439 kts 329°
2026-05-06 19:54 24.30897 -79.00019 31925 ft 442 kts 329°
2026-05-06 19:54 24.33535 -79.01771 31157 ft 444 kts 329°
2026-05-06 19:54 24.36189 -79.03533 30400 ft 447 kts 330°
2026-05-06 19:55 24.38855 -79.05304 29627 ft 448 kts 330°
2026-05-06 19:55 24.41526 -79.07080 28892 ft 447 kts 329°
2026-05-06 19:55 24.44186 -79.08849 28296 ft 445 kts 329°
2026-05-06 19:55 24.46831 -79.10610 28095 ft 444 kts 329°
2026-05-06 19:56 24.52091 -79.14113 28061 ft 444 kts 329°
2026-05-06 19:56 24.57375 -79.17635 28049 ft 444 kts 329°
2026-05-06 19:57 24.60005 -79.19390 27552 ft 441 kts 329°
2026-05-06 19:57 24.62631 -79.21144 26923 ft 440 kts 329°
2026-05-06 19:57 24.65234 -79.22882 26414 ft 435 kts 329°
2026-05-06 19:57 24.67806 -79.24601 25886 ft 431 kts 329°
2026-05-06 19:58 24.70362 -79.26310 25334 ft 428 kts 329°
2026-05-06 19:58 24.72896 -79.28005 24791 ft 425 kts 329°
2026-05-06 19:58 24.75417 -79.29692 24254 ft 422 kts 329°
2026-05-06 19:58 24.77917 -79.31366 23733 ft 419 kts 329°
2026-05-06 19:59 24.80371 -79.33010 23136 ft 417 kts 329°
2026-05-06 19:59 24.82840 -79.34665 22555 ft 413 kts 329°
2026-05-06 19:59 24.85285 -79.36304 21993 ft 409 kts 329°
2026-05-06 19:59 24.87710 -79.37931 21449 ft 406 kts 329°
2026-05-06 20:00 24.90107 -79.39540 21137 ft 402 kts 330°
2026-05-06 20:00 24.92498 -79.41145 21060 ft 402 kts 330°
2026-05-06 20:00 24.94888 -79.42750 21062 ft 403 kts 330°
2026-05-06 20:00 24.97286 -79.44360 21057 ft 402 kts 329°
2026-05-06 20:01 24.99637 -79.45943 21027 ft 386 kts 329°
2026-05-06 20:01 25.01867 -79.47443 20848 ft 375 kts 330°
2026-05-06 20:01 25.04074 -79.48929 20553 ft 367 kts 330°
2026-05-06 20:01 25.06243 -79.50389 20162 ft 363 kts 330°
2026-05-06 20:02 25.08391 -79.51835 19742 ft 360 kts 330°
2026-05-06 20:02 25.10529 -79.53275 19306 ft 358 kts 330°
2026-05-06 20:02 25.12646 -79.54702 18875 ft 355 kts 330°
2026-05-06 20:02 25.14747 -79.56119 18462 ft 353 kts 330°
2026-05-06 20:03 25.16836 -79.57528 17987 ft 351 kts 330°
2026-05-06 20:03 25.18912 -79.58928 17488 ft 349 kts 330°
2026-05-06 20:03 25.20978 -79.60323 16980 ft 348 kts 330°
2026-05-06 20:03 25.23038 -79.61714 16509 ft 346 kts 330°
2026-05-06 20:04 25.25087 -79.63098 16026 ft 344 kts 330°
2026-05-06 20:04 25.27124 -79.64475 15553 ft 342 kts 330°
2026-05-06 20:04 25.29150 -79.65845 15156 ft 340 kts 331°
2026-05-06 20:04 25.31136 -79.67189 14982 ft 339 kts 331°
2026-05-06 20:05 25.33150 -79.68551 14970 ft 340 kts 331°
2026-05-06 20:05 25.35169 -79.69918 14969 ft 340 kts 331°
2026-05-06 20:05 25.37184 -79.71288 14970 ft 340 kts 329°
2026-05-06 20:05 25.39048 -79.72924 14972 ft 344 kts 316°
2026-05-06 20:06 25.40560 -79.74985 14970 ft 346 kts 309°
2026-05-06 20:06 25.41976 -79.77168 14979 ft 358 kts 309°
2026-05-06 20:06 25.43461 -79.79478 14979 ft 375 kts 308°
2026-05-06 20:06 25.44984 -79.81858 14968 ft 380 kts 308°
2026-05-06 20:07 25.46493 -79.84223 14971 ft 382 kts 308°
2026-05-06 20:07 25.48024 -79.86623 14973 ft 382 kts 308°
2026-05-06 20:07 25.49558 -79.89028 14574 ft 382 kts 308°
2026-05-06 20:07 25.51097 -79.91441 14001 ft 380 kts 308°
2026-05-06 20:08 25.52577 -79.93769 13642 ft 359 kts 308°
2026-05-06 20:08 25.53970 -79.95962 13284 ft 337 kts 308°
2026-05-06 20:08 25.55284 -79.98029 12944 ft 318 kts 308°
2026-05-06 20:08 25.56532 -79.99989 12460 ft 307 kts 308°
2026-05-06 20:09 25.57753 -80.01904 11853 ft 301 kts 308°
2026-05-06 20:09 25.58953 -80.03781 11290 ft 297 kts 308°
2026-05-06 20:09 25.60150 -80.05653 11036 ft 298 kts 308°
2026-05-06 20:09 25.61334 -80.07506 10976 ft 297 kts 308°
2026-05-06 20:10 25.62524 -80.09369 10973 ft 296 kts 308°
2026-05-06 20:10 25.63713 -80.11233 10976 ft 296 kts 308°
2026-05-06 20:10 25.64895 -80.13096 10976 ft 296 kts 306°
2026-05-06 20:10 25.65917 -80.15078 10980 ft 297 kts 299°
2026-05-06 20:11 25.66820 -80.17146 10939 ft 298 kts 298°
2026-05-06 20:11 25.67709 -80.19244 10521 ft 302 kts 297°
2026-05-06 20:11 25.68591 -80.21338 10220 ft 298 kts 297°
2026-05-06 20:11 25.69454 -80.23382 9922 ft 294 kts 297°
2026-05-06 20:12 25.70317 -80.25420 9578 ft 291 kts 297°
2026-05-06 20:12 25.71041 -80.27506 9211 ft 292 kts 284°
2026-05-06 20:12 25.71192 -80.29763 8886 ft 294 kts 271°
2026-05-06 20:12 25.71105 -80.32023 8567 ft 292 kts 268°
2026-05-06 20:13 25.70982 -80.34262 8230 ft 290 kts 268°
2026-05-06 20:13 25.70861 -80.36494 7895 ft 288 kts 268°
2026-05-06 20:13 25.70747 -80.38708 7559 ft 287 kts 268°
2026-05-06 20:13 25.70665 -80.40911 7218 ft 285 kts 272°
2026-05-06 20:14 25.71078 -80.43035 6867 ft 282 kts 296°
2026-05-06 20:14 25.72304 -80.44699 6517 ft 280 kts 323°
2026-05-06 20:14 25.74025 -80.45613 6315 ft 272 kts 349°
2026-05-06 20:14 25.75863 -80.45505 6157 ft 263 kts 19°
2026-05-06 20:15 25.77337 -80.44419 5972 ft 250 kts 50°
2026-05-06 20:15 25.78108 -80.42753 5671 ft 241 kts 77°
2026-05-06 20:15 25.78298 -80.40956 5383 ft 232 kts 87°
2026-05-06 20:15 25.78360 -80.39229 5243 ft 215 kts 85°
2026-05-06 20:16 25.78835 -80.37737 5062 ft 203 kts 51°
2026-05-06 20:16 25.79955 -80.36875 4771 ft 196 kts 14°
2026-05-06 20:16 25.81266 -80.36950 4496 ft 187 kts 335°
2026-05-06 20:16 25.82175 -80.37883 4304 ft 176 kts 295°
2026-05-06 20:17 25.82301 -80.39199 3978 ft 175 kts 254°
2026-05-06 20:17 25.81653 -80.40323 3643 ft 175 kts 225°
2026-05-06 20:17 25.80698 -80.41221 3125 ft 186 kts 216°
2026-05-06 20:17 25.79608 -80.42055 2663 ft 191 kts 212°
2026-05-06 20:18 25.78431 -80.42699 2339 ft 187 kts 194°
2026-05-06 20:18 25.77173 -80.42923 2000 ft 180 kts 171°
2026-05-06 20:18 25.76113 -80.42356 1668 ft 170 kts 131°
2026-05-06 20:18 25.75528 -80.41259 1342 ft 163 kts 111°
2026-05-06 20:19 25.75304 -80.40061 1176 ft 157 kts 93°
2026-05-06 20:19 25.75492 -80.38857 1182 ft 160 kts 75°
2026-05-06 20:19 25.75879 -80.37729 1158 ft 151 kts 70°
2026-05-06 20:19 25.76278 -80.36730 1183 ft 137 kts 69°
2026-05-06 20:20 25.76671 -80.35777 1181 ft 137 kts 68°
2026-05-06 20:20 25.77259 -80.34914 1000 ft 144 kts 49°
2026-05-06 20:20 25.77925 -80.34114 751 ft 140 kts 56°
2026-05-06 20:20 25.78422 -80.33201 427 ft 136 kts 73°
2026-05-06 20:21 25.78591 -80.32196 218 ft 129 kts 92°
2026-05-06 20:21 25.78622 -80.31207 37 ft 127 kts 90°
2026-05-06 20:21 25.78651 -80.30350 19 ft 86 kts 87°
2026-05-06 20:21 25.78676 -80.29908 17 ft 32 kts 86°
2026-05-06 20:22 25.78743 -80.29823 19 ft 9 kts 342°
2026-05-06 20:22 25.78802 -80.29848 21 ft 9 kts 342°
2026-05-06 20:22 25.78859 -80.29830 19 ft 8 kts 44°
2026-05-06 20:22 25.78870 -80.29779 21 ft 7 kts 83°
2026-05-06 20:23 25.78875 -80.29719 19 ft 9 kts 85°
2026-05-06 20:23 25.78880 -80.29648 19 ft 9 kts 88°
2026-05-06 20:23 25.78880 -80.29633 19 ft 1 kts 88°
2026-05-06 20:23 25.78880 -80.29617 19 ft 3 kts 88°
2026-05-06 20:24 25.78881 -80.29588 19 ft 4 kts 88°
2026-05-06 20:24 25.78882 -80.29548 19 ft 6 kts 89°
2026-05-06 20:24 25.78883 -80.29497 19 ft 7 kts 89°
2026-05-06 20:24 25.78883 -80.29477 19 ft 1 kts 88°
2026-05-06 20:25 25.78884 -80.29460 23 ft 3 kts 88°
2026-05-06 20:25 25.78885 -80.29429 20 ft 5 kts 88°
2026-05-06 20:25 25.78887 -80.29384 19 ft 7 kts 86°
2026-05-06 20:25 25.78891 -80.29326 19 ft 9 kts 86°
2026-05-06 20:26 25.78919 -80.29273 20 ft 8 kts 26°
2026-05-06 20:26 25.78972 -80.29263 19 ft 5 kts
2026-05-06 20:26 25.78981 -80.29273 19 ft 1 kts 303°
2026-05-06 20:26 25.78977 -80.29292 19 ft 3 kts 255°
2026-05-06 20:27 25.78985 -80.29320 21 ft 4 kts 311°
2026-05-06 20:27 25.79004 -80.29323 19 ft 3 kts 358°
2026-05-06 20:27 25.79015 -80.29323 19 ft 0 kts 358°